Location: N�rnberg
(49.4471°N, 11.0632°E)
Time: 10:09:32
(UTC+01:00)

Envisat - Pass Details

Date: 23 February 2026
Orbit: 761 x 763 km, 98.4° (Epoch: 9 March)

Event Time Altitude Azimuth Distance (km) Brightness Sun altitude
Rises 03:06:53 0° 14° (NNE) 3,236 6.8 -38.7°
Reaches altitude 10° 03:09:12 10° 15° (NNE) 2,306 5.9 -38.4°
Enters shadow 03:10:18 17° 15° (NNE) 1,874 5.4 -38.2°
